KC7NGC-B Weather Reports


Display with metric or nautical units.
time (UTC)temp
F
wind
direction
speed
MPH
gust
MPH
rain 1hr
in
rain 24hr
in
rain mn
in
humidity
%
barometer
mb
20260906173623 56 329 4.0 6.0 0.01 0.03 0.03 1 1017.2
20260906172619 56 327 6.0 8.0 0.01 0.03 0.03 1 1017.1
20260906171616 55 323 3.0 5.0 0.01 0.02 0.02 1 1017.3
20260906170713 55 335 4.0 6.0 0.01 0.02 0.02 1 1017.3
20260906165629 55 326 7.0 10.0 0.00 0.02 0.02 1 1016.9
20260906164626 55 321 8.0 11.0 0.00 0.02 0.02 1 1016.8
20260906163643 55 304 9.0 13.0 0.01 0.02 0.02 1 1017.1
20260906162621 55 311 5.0 9.0 0.01 0.02 0.02 1 1017.1
20260906161636 55 305 6.0 8.0 0.01 0.02 0.02 1 1017.2
20260906160632 55 250 4.0 8.0 0.01 0.02 0.02 1 1017.5
20260906155649 55 232 4.0 8.0 0.01 0.02 0.02 1 1017.9
20260906154625 54 213 6.0 9.0 0.01 0.02 0.02 1 1018.1
20260906153622 54 219 7.0 8.0 0.01 0.01 0.01 1 1018.2
20260906152619 56 208 6.0 8.0 0.01 0.01 0.01 1 1018.2
20260906151635 56 218 4.0 5.0 0.01 0.01 0.01 1 1017.9
20260906150632 56 232 4.0 5.0 0.01 0.01 0.01 1 1017.5
20260906145629 55 311 6.0 9.0 0.01 0.01 0.01 1 1017.1
20260906144625 56 320 5.0 8.0 0.00 0.00 0.00 1 1016.6
20260906143622 56 322 5.0 7.0 0.00 0.00 0.00 1 1016.9
20260906142619 57 339 3.0 5.0 0.00 0.00 0.00 1 1016.9
20260906141635 58 331 4.0 7.0 0.00 0.00 0.00 1 1017.0
20260906140632 57 305 3.0 5.0 0.00 0.00 0.00 1 1017.0
20260906135628 56 345 4.0 5.0 0.00 0.00 0.00 1 1016.6
20260906134625 55 353 4.0 6.0 0.00 0.00 0.00 1 1016.6
20260906133641 55 343 2.0 3.0 0.00 0.00 0.00 1 1016.6
20260906132618 55 9 3.0 4.0 0.00 0.00 0.00 1 1016.5
20260906131635 56 351 3.0 5.0 0.00 0.00 0.00 1 1016.2
20260906130652 56 324 5.0 7.0 0.00 0.00 0.00 1 1016.3
20260906125628 56 286 3.0 5.0 0.00 0.00 0.00 1 1016.5
20260906124625 56 325 5.0 6.0 0.00 0.00 0.00 1 1016.5
20260906123641 56 326 3.0 5.0 0.00 0.00 0.00 1 1016.9
20260906122618 56 334 4.0 5.0 0.00 0.00 0.00 1 1016.6
20260906121635 56 331 6.0 8.0 0.00 0.00 0.00 1 1016.9
20260906120632 57 342 6.0 8.0 0.00 0.00 0.00 1 1016.9
20260906115629 57 347 7.0 8.0 0.00 0.00 0.00 1 1016.8
20260906114625 58 349 7.0 8.0 0.00 0.00 0.00 1 1017.0
20260906113622 57 1 3.0 4.0 0.00 0.00 0.00 1 1016.8
20260906112619 56 357 1.0 2.0 0.00 0.00 0.00 1 1017.0
20260906111640 56 0.0 0.0 0.00 0.00 0.00 1 1016.9
20260906110635 56 14 1.0 2.0 0.00 0.00 0.00 1 1017.0
20260906105633 56 325 2.0 2.0 0.00 0.00 0.00 1 1017.0
20260906104629 56 0.0 1.0 0.00 0.00 0.00 1 1017.0
20260906103626 56 342 1.0 2.0 0.00 0.00 0.00 1 1017.1
20260906102623 56 316 4.0 4.0 0.00 0.00 0.00 1 1017.0
20260906101619 57 355 5.0 7.0 0.00 0.00 0.00 1 1016.9
20260906100616 57 352 9.0 12.0 0.00 0.00 0.00 1 1016.9
20260906095633 57 356 7.0 9.0 0.00 0.00 0.00 1 1017.0
20260906094630 57 355 6.0 9.0 0.00 0.00 0.00 1 1016.9
20260906093626 55 338 5.0 6.0 0.00 0.00 0.00 1 1017.0
20260906092622 55 318 5.0 6.0 0.00 0.00 0.00 1 1017.0
20260906091619 55 312 3.0 3.0 0.00 0.00 0.00 1 1016.9
20260906090616 55 257 1.0 2.0 0.00 0.00 0.00 1 1017.0
20260906085633 55 280 1.0 2.0 0.00 0.00 0.00 1 1017.2
20260906084710 55 308 3.0 4.0 0.00 0.00 0.00 1 1017.2
20260906083627 56 315 5.0 7.0 0.00 0.00 0.00 1 1017.3
20260906082623 56 343 5.0 10.0 0.00 0.00 0.00 1 1017.4
20260906081640 56 359 7.0 12.0 0.00 0.00 0.00 1 1017.4
20260906080616 56 326 7.0 11.0 0.00 0.00 0.00 1 1017.5
20260906075633 57 335 7.0 8.0 0.00 0.00 0.00 1 1017.4
20260906074629 58 336 5.0 8.0 0.00 0.00 0.00 1 1017.5
20260906073626 58 331 8.0 10.0 0.00 0.00 0.00 1 1017.3
20260906072623 58 328 5.0 6.0 0.00 0.00 0.00 1 1017.6
20260906071619 59 338 4.0 6.0 0.00 0.00 0.00 1 1017.4
20260906070635 59 341 6.0 8.0 0.00 0.00 0.00 1 1017.5
20260906065632 59 335 3.0 5.0 0.00 0.00 0.00 1 1017.7
20260906064629 58 345 3.0 4.0 0.00 0.00 0.00 1 1017.6
20260906063625 57 326 1.0 2.0 0.00 0.00 0.00 1 1017.7
20260906062622 58 253 1.0 2.0 0.00 0.00 0.00 1 1017.9
20260906061618 58 295 3.0 3.0 0.00 0.00 0.00 1 1017.8
20260906060635 57 330 3.0 5.0 0.00 0.00 0.00 1 1017.7
20260906055631 57 353 2.0 2.0 0.00 0.00 0.00 1 1017.8
20260906054627 58 299 2.0 2.0 0.00 0.00 0.00 1 1017.7
20260906053624 59 315 3.0 3.0 0.00 0.00 0.00 1 1017.7
20260906052620 59 326 4.0 6.0 0.00 0.00 0.00 1 1017.7
20260906051619 60 327 4.0 5.0 0.00 0.00 0.00 1 1017.6
20260906050632 60 338 4.0 5.0 0.00 0.00 0.00 1 1017.5
20260906045628 61 323 3.0 4.0 0.00 0.00 0.00 1 1017.9
20260906044624 61 344 3.0 4.0 0.00 0.00 0.00 1 1017.8
20260906043640 62 318 3.0 3.0 0.00 0.00 0.00 1 1017.9
20260906042616 62 344 4.0 5.0 0.00 0.00 0.00 1 1017.9
20260906041632 62 343 4.0 5.0 0.00 0.00 0.00 1 1017.7
20260906040628 62 343 4.0 5.0 0.00 0.00 0.00 1 1017.8
20260906035625 63 322 3.0 4.0 0.00 0.00 0.00 1 1017.7
20260906034621 63 341 3.0 3.0 0.00 0.00 0.00 1 1017.8
20260906033618 64 344 3.0 4.0 0.00 0.00 0.00 1 1017.6
20260906032633 65 332 3.0 4.0 0.00 0.00 0.00 1 1017.6
20260906031629 65 318 5.0 6.0 0.00 0.00 0.00 1 1017.5
20260906030625 65 329 5.0 6.0 0.00 0.00 0.00 1 1017.4
20260906025621 66 318 6.0 9.0 0.00 0.00 0.00 1 1017.3
20260906024618 66 314 4.0 6.0 0.00 0.00 0.00 1 1017.3
20260906023634 67 315 5.0 6.0 0.00 0.00 0.00 1 1017.3
20260906022630 68 327 3.0 5.0 0.00 0.00 0.00 1 1017.3
20260906021626 69 336 3.0 6.0 0.00 0.00 0.00 1 1017.2
20260906020623 69 333 5.0 6.0 0.00 0.00 0.00 1 1017.3
20260906015619 71 319 3.0 5.0 0.00 0.00 0.00 1 1017.1
20260906014635 71 318 3.0 4.0 0.00 0.00 0.00 1 1017.2
20260906013651 71 13 1.0 2.0 0.00 0.00 0.00 1 1017.4
20260906012627 72 351 2.0 3.0 0.00 0.00 0.00 1 1017.4
20260906011623 72 1 3.0 4.0 0.00 0.00 0.00 1 1017.2
20260906010619 73 18 3.0 3.0 0.00 0.00 0.00 1 1017.2
20260906005635 74 343 2.0 3.0 0.00 0.00 0.00 1 1017.3
20260906004651 74 0.0 0.0 0.00 0.00 0.00 1 1017.3
20260906003628 73 32 1.0 3.0 0.00 0.00 0.00 1 1017.2
20260906002624 73 52 2.0 2.0 0.00 0.00 0.00 1 1017.4
20260906001620 72 32 3.0 4.0 0.00 0.00 0.00 1 1017.4
20260906000616 73 23 4.0 5.0 0.00 0.00 0.00 1 1017.5
20260905235633 73 322 3.0 4.0 0.00 0.00 0.00 1 1017.4
20260905234629 73 10 4.0 5.0 0.00 0.00 0.00 1 1017.5
20260905233625 73 321 4.0 6.0 0.00 0.00 0.00 1 1017.5
20260905232701 74 10 4.0 6.0 0.00 0.00 0.00 1 1017.5
20260905231617 74 34 3.0 4.0 0.00 0.00 0.00 1 1017.4
20260905230634 73 32 2.0 3.0 0.00 0.00 0.00 1 1017.7
20260905225630 72 216 2.0 3.0 0.00 0.00 0.00 1 1017.6
20260905224628 73 38 2.0 4.0 0.00 0.00 0.00 1 1017.7
20260905223622 72 103 2.0 3.0 0.00 0.00 0.00 1 1017.7
20260905222619 71 60 4.0 7.0 0.00 0.00 0.00 1 1017.7
20260905221635 72 302 3.0 5.0 0.00 0.00 0.00 1 1018.0
20260905220631 71 313 3.0 6.0 0.00 0.00 0.00 1 1018.0
20260905215627 70 110 2.0 2.0 0.00 0.00 0.00 1 1018.0
20260905214623 72 316 6.0 10.0 0.00 0.00 0.00 1 1018.1
20260905213639 71 312 5.0 8.0 0.00 0.00 0.00 1 1018.3
20260905212636 71 32 3.0 5.0 0.00 0.00 0.00 1 1018.3
20260905211632 70 40 4.0 6.0 0.00 0.00 0.00 1 1018.5
20260905210628 70 238 3.0 5.0 0.00 0.00 0.00 1 1018.7
20260905205624 70 311 3.0 4.0 0.00 0.00 0.00 1 1018.6
20260905204700 70 2 6.0 9.0 0.00 0.00 0.00 1 1018.5
20260905203616 69 338 5.0 9.0 0.00 0.00 0.00 1 1018.5
20260905202713 69 27 4.0 6.0 0.00 0.00 0.00 1 1018.6
20260905201628 70 341 6.0 11.0 0.00 0.00 0.00 1 1018.6
20260905200649 69 320 6.0 11.0 0.00 0.00 0.00 1 1018.7
20260905195641 68 330 5.0 8.0 0.00 0.00 0.00 1 1018.9
20260905194617 69 336 9.0 13.0 0.00 0.00 0.00 1 1018.9
20260905193653 68 317 7.0 8.0 0.00 0.00 0.00 1 1018.9
20260905192629 68 357 11.0 15.0 0.00 0.00 0.00 1 1018.7
20260905191625 69 338 9.0 11.0 0.00 0.00 0.00 1 1019.0
20260905190621 67 355 8.0 12.0 0.00 0.00 0.00 1 1019.0
20260905185617 67 289 5.0 7.0 0.00 0.00 0.00 1 1019.2
20260905184654 67 321 6.0 10.0 0.00 0.00 0.00 1 1019.0
20260905183630 65 282 4.0 5.0 0.00 0.00 0.00 1 1019.3
20260905182627 65 358 8.0 13.0 0.00 0.00 0.00 1 1019.3
20260905181622 64 327 2.0 4.0 0.00 0.00 0.00 1 1019.4
20260905180639 65 358 5.0 9.0 0.00 0.00 0.00 1 1019.6
20260905175634 64 352 6.0 8.0 0.00 0.00 0.00 1 1019.6
20260905174710 64 22 3.0 6.0 0.00 0.00 0.00 1 1019.8